Regional Weather Roundup
Issued by NWS State College, PA

Home | Current Version | Previous Version | Text Only | Print | Product List | Glossary On
Versions: 1 2 3 4 5 6 7 8 9 10 11 12 13 14 15 16 17 18 19 20 21 22 23 24 25 26 27 28 29 30 31 32 33 34 35 36 37 38 39 40 41 42 43 44 45 46 47 48 49 50
000
ASUS41 KCTP 191403
RWRCTP

REGIONAL WEATHER ROUNDUP
NATIONAL WEATHER SERVICE STATE COLLEGE PA
900 AM EST FRI DEC 19 2014

Note: "fair" indicates few or no clouds below 12,000 feet with no
significant weather and/or obstructions to visibility.

* = STATION THAT DOES NOT REPORT PRECIPITATION /E.G. RAIN...SNOW...ETC/
    THUNDER OR FOG.

PAZ002>004-007>009-013>016-020>023-029>032-191500-
WESTERN PENNSYLVANIA

CITY           SKY/WX    TMP DP  RH WIND       PRES   REMARKS
ERIE           CLOUDY    28  21  75 W9        30.21R
MEADVILLE      CLOUDY    27  23  85 W8        30.15S
FRANKLIN*      CLOUDY    27  21  80 CALM      30.16R
NEW CASTLE     MIX PCPN  28  26  92 CALM      30.22R
BEAVER COUNTY  CLOUDY    28  28 100 NW3       30.19R FOG
BUTLER*        CLOUDY    28  27  93 CALM      30.20R
PITTSBURGH INT LGT SNOW  28  26  92 W6        30.19R FOG
PITTSBURGH     CLOUDY    28  23  81 W8        30.19R FOG
INDIANA*       CLOUDY    28  27  93 W8G15     30.19R FOG
LATROBE        FRZ DRZL  27  27 100 SW8       30.21R
WASHINGTON CO* NOT AVBL
$$

PAZ004>006-010>012-017>019-024>028-033>037-041-042-045-046-049>053-191500-
CENTRAL PENNSYLVANIA

CITY           SKY/WX    TMP DP  RH WIND       PRES   REMARKS
BRADFORD       CLOUDY    24  20  84 NW13      30.07R WCI  12
DUBOIS         CLOUDY    26  23  88 W12       30.10R
CLEARFIELD     CLOUDY    28  22  78 NW10      30.12R
JOHNSTOWN      CLOUDY    24  21  88 W16       30.08R FOG     WCI  11
ALTOONA        CLOUDY    29  23  78 NW13      30.12R
STATE COLLEGE  CLOUDY    30  21  69 NW14      30.12R
WILLIAMSPORT   CLOUDY    34  21  59 W13       30.10R
SELINSGROVE    CLOUDY    35  22  58 NW7       30.12R
FT INDIANTOWN  CLOUDY    35  22  60 W8G17     30.10R
CAPITAL CITY   CLOUDY    36  24  62 W8        30.12R
HARRISBURG     CLOUDY    35  25  66 NW10      30.11R
YORK           CLOUDY    35  24  64 NW9       30.12R
$$

PAZ038>040-043-044-047-048-054-055-060>062-067>071-191500-
EASTERN PENNSYLVANIA

CITY           SKY/WX    TMP DP  RH WIND       PRES   REMARKS
SCRANTON       CLOUDY    31  21  66 N9        30.06R
MOUNT POCONO   CLOUDY    26  19  74 NW13G23   29.98R WCI  15
ALLENTOWN      CLOUDY    36  26  67 NW7       30.07R
QUAKERTOWN*    CLOUDY    36  27  69 NW7       30.07R
READING        CLOUDY    36  24  62 NW15      30.09R
LANCASTER      CLOUDY    35  24  64 W13       30.10R
COATESVILLE    CLOUDY    36  28  75 NW12      30.07R
POTTSTOWN      CLOUDY    35  25  66 NW8       30.09R
BLUE BELL      CLOUDY    36  28  75 W6        30.06R
DOYLESTOWN     CLOUDY    34  27  75 NW8       30.05R
WILLOW GROVE   NOT AVBL
NORTH PHILA    CLOUDY    38  25  59 NW8       30.09R
PHILADELPHIA   CLOUDY    38  25  59 W10       30.10R
$$


USA.gov is the U.S. government's official web portal to all federal, state and local government web resources and services.